Regional Weather Roundup
Issued by NWS

Home | Current Version | Previous Version | Text Only | Print | Product List | Glossary On
Versions: 1 2 3 4 5 6 7 8 9 10 11 12 13 14 15 16 17 18 19 20 21 22 23 24 25 26 27 28 29 30 31 32 33 34 35 36 37 38 39 40 41 42 43 44 45 46 47 48 49 50
000
ASUS43 KLMK 301810
RWRKY
KENTUCKY REGIONAL WEATHER ROUNDUP
NATIONAL WEATHER SERVICE LOUISVILLE KY
200 PM EDT SAT MAY 30 2015

NOTE "FAIR" INDICATES FEW OR NO CLOUDS BELOW 12,000 FEET
WITH NO SIGNIFICANT WEATHER AND/OR OBSTRUCTIONS TO VISIBILITY.

KYZ001>023-026-027-061>063-070>075-301900-
WESTERN AND SOUTH CENTRAL KENTUCKY

CITY           SKY/WX    TMP DP  RH WIND       PRES   REMARKS
PADUCAH        PTSUNNY   79  67  66 S15       29.93F
HENDERSON      MOSUNNY   81  66  61 S16G26    29.96F
OWENSBORO      PTSUNNY   83  69  62 S16       29.99F
HOPKINSVILLE   PTSUNNY   77  70  78 S13G18    30.01F
BOWLING GREEN  MOSUNNY   85  66  53 S21G28    30.04F
GLASGOW        MOSUNNY   83  64  52 S9G18     30.05F
$$

KYZ024-025-028>034-038-045-046-053-301900-
NORTH CENTRAL KENTUCKY

CITY           SKY/WX    TMP DP  RH WIND       PRES   REMARKS
LOUISVILLE/SDF PTSUNNY   86  65  49 S20G31    30.00F
LOUISVILLE/LOU MOSUNNY   85  66  53 S12G18    30.01F
FORT KNOX      MOSUNNY   79  69  70 S16       30.02F
$$

KYZ035>037-039>044-047>052-055>060-089>105-301900-
NORTHEAST KENTUCKY

CITY           SKY/WX    TMP DP  RH WIND       PRES   REMARKS
LEXINGTON      MOSUNNY   83  67  58 S13       30.07F
COVINGTON      PTSUNNY   82  65  56 S18       30.04F
FRANKFORT        N/A     82  66  58 SW13      30.04F
$$

KYZ054-064>069-076>088-106>120-301900-
SOUTHEAST KENTUCKY

CITY           SKY/WX    TMP DP  RH WIND       PRES   REMARKS
JACKSON        MOSUNNY   81  60  48 MISG      30.13F
LONDON         PTSUNNY   83  59  44 S10       30.13F
SOMERSET       PTSUNNY   79  63  57 S12       30.12F
MIDDLESBORO    MOSUNNY   82  60  48 S8        30.15F
MONTICELLO     PTCLDY    82  66  58 S15       30.13F
$$




USA.gov is the U.S. government's official web portal to all federal, state and local government web resources and services.